Time,TemperatureF,DewpointF,PressureIn,WindDirection,WindDirectionDegrees,WindSpeedMPH,WindSpeedGustMPH,Humidity,HourlyPrecipIn,Conditions,Clouds,dailyrainin,SoftwareType,DateUTC
2013-02-19 00:00:00,42.8,39.5,30.21,ESE,110,0.0,28.0,88,0.00,,---,0.00,VWS V12.08,2013-02-19 05:00:00,
2013-02-19 00:01:00,42.8,39.5,30.21,ESE,110,0.0,28.0,88,0.00,,---,0.00,VWS V12.08,2013-02-19 05:01:00,
2013-02-19 00:02:00,42.7,39.4,30.21,ESE,110,0.0,28.0,88,0.00,,---,0.00,VWS V12.08,2013-02-19 05:02:00,
2013-02-19 00:07:00,42.6,39.3,30.21,ESE,110,0.0,28.0,88,0.00,,---,0.00,VWS V12.08,2013-02-19 05:07:00,
2013-02-19 00:12:00,42.5,39.2,30.21,ESE,110,0.0,28.0,88,0.00,,---,0.00,VWS V12.08,2013-02-19 05:12:00,
2013-02-19 00:17:00,42.3,39.0,30.21,ESE,110,0.0,28.0,88,0.00,,---,0.00,VWS V12.08,2013-02-19 05:17:00,
2013-02-19 00:22:00,42.2,38.9,30.22,ESE,110,0.0,28.0,88,0.00,,---,0.00,VWS V12.08,2013-02-19 05:22:00,
2013-02-19 00:27:00,42.0,38.7,30.22,ESE,110,0.0,28.0,88,0.00,,---,0.00,VWS V12.08,2013-02-19 05:27:00,
2013-02-19 00:32:00,41.8,38.5,30.22,ESE,110,0.0,28.0,88,0.00,,---,0.00,VWS V12.08,2013-02-19 05:32:00,
2013-02-19 00:37:00,41.7,38.7,30.22,ESE,110,0.0,28.0,89,0.00,,---,0.00,VWS V12.08,2013-02-19 05:37:00,
2013-02-19 00:42:00,41.6,38.6,30.21,ESE,110,0.0,28.0,89,0.00,,---,0.00,VWS V12.08,2013-02-19 05:42:00,
2013-02-19 00:47:00,41.5,38.5,30.21,ESE,110,0.0,28.0,89,0.00,,---,0.00,VWS V12.08,2013-02-19 05:47:00,
2013-02-19 00:52:00,41.5,38.5,30.21,ESE,110,0.0,28.0,89,0.00,,---,0.00,VWS V12.08,2013-02-19 05:52:00,
2013-02-19 00:57:00,41.4,38.4,30.22,ESE,110,0.0,28.0,89,0.00,,---,0.00,VWS V12.08,2013-02-19 05:57:00,
2013-02-19 01:02:00,41.3,38.3,30.22,ESE,110,0.0,28.0,89,0.00,,---,0.00,VWS V12.08,2013-02-19 06:02:00,
2013-02-19 01:07:00,41.1,38.1,30.22,ESE,110,0.0,28.0,89,0.00,,---,0.00,VWS V12.08,2013-02-19 06:07:00,
2013-02-19 01:12:00,40.9,37.9,30.22,ESE,110,0.0,28.0,89,0.00,,---,0.00,VWS V12.08,2013-02-19 06:12:00,
2013-02-19 01:17:00,40.7,37.7,30.22,ESE,110,0.0,28.0,89,0.00,,---,0.00,VWS V12.08,2013-02-19 06:17:00,
2013-02-19 01:22:00,40.6,37.6,30.22,ESE,110,0.0,28.0,89,0.00,,---,0.00,VWS V12.08,2013-02-19 06:22:00,
2013-02-19 01:27:00,40.6,37.9,30.22,ESE,110,0.0,28.0,90,0.00,,---,0.00,VWS V12.08,2013-02-19 06:27:00,
2013-02-19 01:32:00,40.6,37.9,30.22,ESE,110,0.0,28.0,90,0.00,,---,0.00,VWS V12.08,2013-02-19 06:32:00,
2013-02-19 01:37:00,40.6,37.9,30.21,ESE,110,0.0,28.0,90,0.00,,---,0.00,VWS V12.08,2013-02-19 06:37:00,
2013-02-19 01:42:00,40.5,37.8,30.21,ESE,110,0.0,28.0,90,0.00,,---,0.00,VWS V12.08,2013-02-19 06:42:00,
2013-02-19 01:47:00,40.6,37.9,30.21,ESE,110,0.0,28.0,90,0.00,,---,0.00,VWS V12.08,2013-02-19 06:47:00,
2013-02-19 01:52:00,40.7,38.3,30.21,ESE,110,0.0,28.0,91,0.00,,---,0.00,VWS V12.08,2013-02-19 06:52:00,
2013-02-19 01:57:00,40.6,37.9,30.21,ESE,110,0.0,28.0,90,0.00,,---,0.00,VWS V12.08,2013-02-19 06:57:00,
2013-02-19 02:02:00,40.6,38.2,30.21,ESE,110,0.0,28.0,91,0.00,,---,0.00,VWS V12.08,2013-02-19 07:02:00,
2013-02-19 02:07:00,40.7,38.3,30.20,ESE,110,0.0,28.0,91,0.00,,---,0.00,VWS V12.08,2013-02-19 07:07:00,
2013-02-19 02:12:00,40.9,38.5,30.20,ESE,110,0.0,28.0,91,0.00,,---,0.00,VWS V12.08,2013-02-19 07:12:00,
2013-02-19 02:17:00,41.0,38.6,30.20,ESE,110,0.0,28.0,91,0.00,,---,0.00,VWS V12.08,2013-02-19 07:17:00,
2013-02-19 02:22:00,41.2,39.1,30.20,ESE,110,0.0,28.0,92,0.00,,---,0.00,VWS V12.08,2013-02-19 07:22:00,
2013-02-19 02:27:00,41.2,38.8,30.20,ESE,110,0.0,28.0,91,0.00,,---,0.00,VWS V12.08,2013-02-19 07:27:00,
2013-02-19 02:32:00,41.1,38.7,30.19,ESE,110,0.0,28.0,91,0.00,,---,0.00,VWS V12.08,2013-02-19 07:32:00,
2013-02-19 02:37:00,41.0,38.6,30.19,ESE,110,0.0,28.0,91,0.00,,---,0.00,VWS V12.08,2013-02-19 07:37:00,
2013-02-19 02:42:00,40.8,38.4,30.19,ESE,110,0.0,28.0,91,0.00,,---,0.00,VWS V12.08,2013-02-19 07:42:00,
2013-02-19 02:47:00,40.5,38.1,30.19,ESE,110,0.0,28.0,91,0.00,,---,0.00,VWS V12.08,2013-02-19 07:47:00,
2013-02-19 02:52:00,40.6,38.2,30.19,ESE,110,0.0,28.0,91,0.00,,---,0.00,VWS V12.08,2013-02-19 07:52:00,
2013-02-19 02:57:00,40.5,38.1,30.18,ESE,110,0.0,28.0,91,0.00,,---,0.00,VWS V12.08,2013-02-19 07:57:00,
2013-02-19 03:02:00,40.4,38.3,30.18,ESE,110,0.0,28.0,92,0.00,,---,0.00,VWS V12.08,2013-02-19 08:02:00,
2013-02-19 03:07:00,40.4,38.3,30.18,ESE,110,0.0,28.0,92,0.00,,---,0.00,VWS V12.08,2013-02-19 08:07:00,
2013-02-19 03:12:00,40.4,38.3,30.17,ESE,110,0.0,28.0,92,0.00,,---,0.00,VWS V12.08,2013-02-19 08:12:00,
2013-02-19 03:17:00,40.5,38.4,30.17,ESE,110,0.0,28.0,92,0.00,,---,0.00,VWS V12.08,2013-02-19 08:17:00,
2013-02-19 03:22:00,40.4,38.0,30.17,ESE,110,0.0,28.0,91,0.00,,---,0.00,VWS V12.08,2013-02-19 08:22:00,
2013-02-19 03:27:00,40.2,38.1,30.16,ESE,110,0.0,28.0,92,0.00,,---,0.00,VWS V12.08,2013-02-19 08:27:00,
2013-02-19 03:32:00,40.1,37.7,30.16,ESE,110,0.0,28.0,91,0.00,,---,0.00,VWS V12.08,2013-02-19 08:32:00,
2013-02-19 03:37:00,40.1,38.0,30.17,ESE,110,0.0,28.0,92,0.00,,---,0.00,VWS V12.08,2013-02-19 08:37:00,
2013-02-19 03:42:00,40.2,38.1,30.16,ESE,110,0.0,28.0,92,0.00,,---,0.00,VWS V12.08,2013-02-19 08:42:00,
2013-02-19 03:47:00,40.2,38.1,30.16,ESE,110,0.0,28.0,92,0.00,,---,0.00,VWS V12.08,2013-02-19 08:47:00,
2013-02-19 03:52:00,40.0,37.9,30.16,ESE,110,0.0,28.0,92,0.00,,---,0.00,VWS V12.08,2013-02-19 08:52:00,
2013-02-19 03:57:00,39.9,37.8,30.16,ESE,110,0.0,28.0,92,0.00,,---,0.00,VWS V12.08,2013-02-19 08:57:00,
2013-02-19 04:02:00,39.6,37.5,30.16,ESE,110,0.0,28.0,92,0.00,,---,0.00,VWS V12.08,2013-02-19 09:02:00,
2013-02-19 04:07:00,39.5,37.4,30.17,ESE,110,0.0,28.0,92,0.00,,---,0.00,VWS V12.08,2013-02-19 09:07:00,
2013-02-19 04:12:00,39.5,37.4,30.17,ESE,110,0.0,28.0,92,0.00,,---,0.00,VWS V12.08,2013-02-19 09:12:00,
2013-02-19 04:17:00,39.5,37.4,30.16,ESE,110,0.0,28.0,92,0.00,,---,0.00,VWS V12.08,2013-02-19 09:17:00,
2013-02-19 04:22:00,39.5,37.4,30.16,ESE,110,0.0,28.0,92,0.00,,---,0.00,VWS V12.08,2013-02-19 09:22:00,
2013-02-19 04:27:00,39.5,37.4,30.16,ESE,110,0.0,28.0,92,0.00,,---,0.00,VWS V12.08,2013-02-19 09:27:00,
2013-02-19 04:32:00,39.5,37.4,30.16,ESE,110,0.0,28.0,92,0.00,,---,0.00,VWS V12.08,2013-02-19 09:32:00,
2013-02-19 04:37:00,39.4,37.3,30.16,ESE,110,0.0,28.0,92,0.00,,---,0.00,VWS V12.08,2013-02-19 09:37:00,
2013-02-19 04:42:00,39.3,37.2,30.16,ESE,110,0.0,28.0,92,0.00,,---,0.00,VWS V12.08,2013-02-19 09:42:00,
2013-02-19 04:47:00,39.3,37.2,30.16,ESE,110,0.0,28.0,92,0.00,,---,0.00,VWS V12.08,2013-02-19 09:47:00,
2013-02-19 04:52:00,39.2,37.1,30.16,ESE,110,0.0,28.0,92,0.00,,---,0.00,VWS V12.08,2013-02-19 09:52:00,
2013-02-19 04:57:00,39.3,37.2,30.16,ESE,110,0.0,28.0,92,0.00,,---,0.00,VWS V12.08,2013-02-19 09:57:00,
2013-02-19 05:02:00,39.3,37.2,30.16,ESE,110,0.0,28.0,92,0.00,,---,0.00,VWS V12.08,2013-02-19 10:02:00,
2013-02-19 05:07:00,39.2,37.1,30.16,ESE,110,0.0,28.0,92,0.00,,---,0.00,VWS V12.08,2013-02-19 10:07:00,
2013-02-19 05:12:00,39.1,37.0,30.16,ESE,110,0.0,28.0,92,0.00,,---,0.00,VWS V12.08,2013-02-19 10:12:00,
2013-02-19 05:17:00,38.9,36.8,30.16,ESE,110,0.0,28.0,92,0.00,,---,0.00,VWS V12.08,2013-02-19 10:17:00,
2013-02-19 05:22:00,38.9,36.8,30.16,ESE,110,0.0,28.0,92,0.00,,---,0.00,VWS V12.08,2013-02-19 10:22:00,
2013-02-19 05:27:00,39.0,36.9,30.15,ESE,110,0.0,28.0,92,0.00,,---,0.00,VWS V12.08,2013-02-19 10:27:00,
2013-02-19 05:32:00,39.0,36.9,30.15,ESE,110,0.0,28.0,92,0.00,,---,0.00,VWS V12.08,2013-02-19 10:32:00,
2013-02-19 05:37:00,38.9,36.8,30.15,ESE,110,0.0,28.0,92,0.00,,---,0.00,VWS V12.08,2013-02-19 10:37:00,
2013-02-19 05:42:00,38.8,36.7,30.15,ESE,110,0.0,28.0,92,0.00,,---,0.00,VWS V12.08,2013-02-19 10:42:00,
2013-02-19 05:47:00,38.7,36.6,30.15,ESE,110,0.0,28.0,92,0.00,,---,0.00,VWS V12.08,2013-02-19 10:47:00,
2013-02-19 05:53:00,38.7,36.8,30.15,ESE,110,0.0,28.0,93,0.00,,---,0.00,VWS V12.08,2013-02-19 10:53:00,
2013-02-19 05:58:00,38.8,37.0,30.15,ESE,110,0.0,28.0,93,0.00,,---,0.00,VWS V12.08,2013-02-19 10:58:00,
2013-02-19 06:03:00,38.8,37.0,30.15,ESE,110,0.0,28.0,93,0.00,,---,0.00,VWS V12.08,2013-02-19 11:03:00,
2013-02-19 06:08:00,38.8,37.0,30.15,ESE,110,0.0,28.0,93,0.00,,---,0.00,VWS V12.08,2013-02-19 11:08:00,
2013-02-19 06:13:00,38.7,36.8,30.15,ESE,110,0.0,28.0,93,0.00,,---,0.00,VWS V12.08,2013-02-19 11:13:00,
2013-02-19 06:18:00,38.6,36.8,30.15,ESE,110,0.0,28.0,93,0.00,,---,0.00,VWS V12.08,2013-02-19 11:18:00,
2013-02-19 06:23:00,38.6,36.8,30.15,ESE,110,0.0,28.0,93,0.00,,---,0.00,VWS V12.08,2013-02-19 11:23:00,
2013-02-19 06:28:00,38.4,36.3,30.15,ESE,110,0.0,28.0,92,0.00,,---,0.00,VWS V12.08,2013-02-19 11:28:00,
2013-02-19 06:33:00,38.4,36.6,30.15,ESE,110,0.0,28.0,93,0.00,,---,0.00,VWS V12.08,2013-02-19 11:33:00,
2013-02-19 06:38:00,38.5,36.7,30.15,ESE,110,0.0,28.0,93,0.00,,---,0.00,VWS V12.08,2013-02-19 11:38:00,
2013-02-19 06:43:00,38.6,36.8,30.15,ESE,110,0.0,28.0,93,0.00,,---,0.00,VWS V12.08,2013-02-19 11:43:00,
2013-02-19 06:48:00,38.6,36.8,30.15,ESE,110,0.0,28.0,93,0.00,,---,0.00,VWS V12.08,2013-02-19 11:48:00,
2013-02-19 06:53:00,38.6,36.8,30.15,ESE,110,0.0,28.0,93,0.00,,---,0.00,VWS V12.08,2013-02-19 11:53:00,
2013-02-19 06:58:00,38.5,36.7,30.15,ESE,110,0.0,28.0,93,0.00,,---,0.00,VWS V12.08,2013-02-19 11:58:00,
2013-02-19 07:03:00,38.4,36.6,30.15,ESE,110,0.0,28.0,93,0.00,,---,0.00,VWS V12.08,2013-02-19 12:03:00,
2013-02-19 07:08:00,38.4,36.6,30.15,ESE,110,0.0,28.0,93,0.00,,---,0.00,VWS V12.08,2013-02-19 12:08:00,
2013-02-19 07:13:00,38.4,36.6,30.15,ESE,110,0.0,28.0,93,0.00,,---,0.00,VWS V12.08,2013-02-19 12:13:00,
2013-02-19 07:18:00,38.5,36.7,30.15,ESE,110,0.0,28.0,93,0.00,,---,0.00,VWS V12.08,2013-02-19 12:18:00,
2013-02-19 07:23:00,38.7,36.8,30.15,ESE,110,0.0,28.0,93,0.00,,---,0.00,VWS V12.08,2013-02-19 12:23:00,
2013-02-19 07:28:00,39.1,37.5,30.15,ESE,110,0.0,28.0,94,0.00,,---,0.00,VWS V12.08,2013-02-19 12:28:00,
2013-02-19 07:33:00,39.5,37.9,30.16,ESE,110,0.0,28.0,94,0.00,,---,0.00,VWS V12.08,2013-02-19 12:33:00,
2013-02-19 07:38:00,40.0,38.4,30.16,ESE,110,0.0,28.0,94,0.00,,---,0.00,VWS V12.08,2013-02-19 12:38:00,
2013-02-19 07:43:00,40.6,39.0,30.16,ESE,110,0.0,28.0,94,0.00,,---,0.00,VWS V12.08,2013-02-19 12:43:00,
2013-02-19 07:48:00,41.2,39.9,30.16,ESE,110,0.0,28.0,95,0.00,,---,0.00,VWS V12.08,2013-02-19 12:48:00,
2013-02-19 07:53:00,41.9,40.6,30.16,ESE,110,0.0,28.0,95,0.00,,---,0.00,VWS V12.08,2013-02-19 12:53:00,
2013-02-19 07:58:00,42.8,41.5,30.16,ESE,110,0.0,28.0,95,0.00,,---,0.00,VWS V12.08,2013-02-19 12:58:00,
2013-02-19 08:03:00,43.8,42.5,30.17,ESE,110,0.0,28.0,95,0.00,,---,0.00,VWS V12.08,2013-02-19 13:03:00,
2013-02-19 08:08:00,44.7,43.4,30.17,ESE,110,0.0,28.0,95,0.00,,---,0.00,VWS V12.08,2013-02-19 13:08:00,
2013-02-19 08:13:00,45.6,44.2,30.17,ESE,110,0.0,28.0,95,0.00,,---,0.00,VWS V12.08,2013-02-19 13:13:00,
2013-02-19 08:18:00,46.2,44.8,30.17,ESE,110,0.0,28.0,95,0.00,,---,0.00,VWS V12.08,2013-02-19 13:18:00,
2013-02-19 08:23:00,47.1,45.7,30.17,ESE,110,0.0,28.0,95,0.00,,---,0.00,VWS V12.08,2013-02-19 13:23:00,
2013-02-19 08:28:00,48.4,47.0,30.17,ESE,110,0.0,28.0,95,0.00,,---,0.00,VWS V12.08,2013-02-19 13:28:00,
2013-02-19 08:33:00,49.4,47.8,30.17,ESE,110,0.0,28.0,94,0.00,,---,0.00,VWS V12.08,2013-02-19 13:33:00,
2013-02-19 08:38:00,50.8,48.8,30.17,ESE,110,0.0,28.0,93,0.00,,---,0.00,VWS V12.08,2013-02-19 13:38:00,
2013-02-19 08:43:00,52.3,50.0,30.17,ESE,110,0.0,28.0,92,0.00,,---,0.00,VWS V12.08,2013-02-19 13:43:00,
2013-02-19 08:48:00,54.0,51.1,30.17,ESE,110,2.0,28.0,90,0.00,,---,0.00,VWS V12.08,2013-02-19 13:48:00,
2013-02-19 08:53:00,56.0,52.5,30.17,ESE,111,0.0,28.0,88,0.00,,---,0.00,VWS V12.08,2013-02-19 13:53:00,
2013-02-19 08:58:00,57.7,53.5,30.17,SE,130,1.0,28.0,86,0.00,,---,0.00,VWS V12.08,2013-02-19 13:58:00,
2013-02-19 09:03:00,59.3,54.2,30.17,SE,142,5.0,28.0,83,0.00,,---,0.00,VWS V12.08,2013-02-19 14:03:00,
2013-02-19 09:08:00,60.8,54.9,30.17,South,183,5.0,28.0,81,0.00,,---,0.00,VWS V12.08,2013-02-19 14:08:00,
2013-02-19 09:13:00,62.1,55.5,30.17,South,186,3.0,28.0,79,0.00,,---,0.00,VWS V12.08,2013-02-19 14:13:00,
2013-02-19 09:18:00,63.2,55.9,30.17,South,184,5.0,28.0,77,0.00,,---,0.00,VWS V12.08,2013-02-19 14:18:00,
2013-02-19 09:23:00,64.4,56.3,30.17,South,175,5.0,28.0,75,0.00,,---,0.00,VWS V12.08,2013-02-19 14:23:00,
2013-02-19 09:28:00,65.5,57.0,30.17,SSW,205,5.0,28.0,74,0.00,,---,0.00,VWS V12.08,2013-02-19 14:28:00,
2013-02-19 09:33:00,66.5,57.2,30.17,SSW,199,7.0,28.0,72,0.00,,---,0.00,VWS V12.08,2013-02-19 14:33:00,
2013-02-19 09:38:00,67.0,57.3,30.17,SSW,207,11.0,28.0,71,0.00,,---,0.00,VWS V12.08,2013-02-19 14:38:00,
2013-02-19 09:43:00,67.8,57.7,30.17,SSW,195,11.0,28.0,70,0.00,,---,0.00,VWS V12.08,2013-02-19 14:43:00,
2013-02-19 09:48:00,68.4,57.8,30.17,South,182,9.0,28.0,69,0.00,,---,0.00,VWS V12.08,2013-02-19 14:48:00,
2013-02-19 09:53:00,68.9,57.5,30.17,SSW,196,7.0,28.0,67,0.00,,---,0.00,VWS V12.08,2013-02-19 14:53:00,
2013-02-19 09:58:00,69.1,57.7,30.17,South,190,7.0,28.0,67,0.00,,---,0.00,VWS V12.08,2013-02-19 14:58:00,
2013-02-19 10:03:00,69.6,57.8,30.17,SSW,205,11.0,28.0,66,0.00,,---,0.00,VWS V12.08,2013-02-19 15:03:00,
2013-02-19 10:08:00,69.8,57.9,30.17,SSW,212,9.0,28.0,66,0.00,,---,0.00,VWS V12.08,2013-02-19 15:08:00,
2013-02-19 10:13:00,70.2,57.5,30.17,SSW,208,13.0,28.0,64,0.00,,---,0.00,VWS V12.08,2013-02-19 15:13:00,
2013-02-19 10:18:00,70.4,57.7,30.17,SW,231,11.0,28.0,64,0.00,,---,0.00,VWS V12.08,2013-02-19 15:18:00,
2013-02-19 10:23:00,70.7,57.5,30.16,SSW,209,14.0,28.0,63,0.00,,---,0.00,VWS V12.08,2013-02-19 15:23:00,
2013-02-19 10:28:00,70.9,57.2,30.17,SW,217,13.0,28.0,62,0.00,,---,0.00,VWS V12.08,2013-02-19 15:28:00,
2013-02-19 10:33:00,71.1,57.0,30.16,SW,214,13.0,28.0,61,0.00,,---,0.00,VWS V12.08,2013-02-19 15:33:00,
2013-02-19 10:38:00,71.2,57.5,30.16,SSW,198,12.0,28.0,62,0.00,,---,0.00,VWS V12.08,2013-02-19 15:38:00,
2013-02-19 10:43:00,71.5,56.9,30.17,SW,221,11.0,28.0,60,0.00,,---,0.00,VWS V12.08,2013-02-19 15:43:00,
2013-02-19 10:48:00,71.5,56.9,30.17,SSW,197,12.0,28.0,60,0.00,,---,0.00,VWS V12.08,2013-02-19 15:48:00,
2013-02-19 10:53:00,71.8,56.2,30.16,SSW,202,15.0,28.0,58,0.00,,---,0.00,VWS V12.08,2013-02-19 15:53:00,
2013-02-19 10:58:00,72.1,57.0,30.16,South,170,14.0,28.0,59,0.00,,---,0.00,VWS V12.08,2013-02-19 15:58:00,
2013-02-19 11:03:00,72.1,56.5,30.16,SW,214,10.0,28.0,58,0.00,,---,0.00,VWS V12.08,2013-02-19 16:03:00,
2013-02-19 11:08:00,72.8,57.2,30.16,SW,221,8.0,28.0,58,0.00,,---,0.00,VWS V12.08,2013-02-19 16:08:00,
2013-02-19 11:13:00,73.4,56.8,30.16,SW,214,13.0,28.0,56,0.00,,---,0.00,VWS V12.08,2013-02-19 16:13:00,
2013-02-19 11:18:00,73.2,56.6,30.16,SSW,192,13.0,28.0,56,0.00,,---,0.00,VWS V12.08,2013-02-19 16:18:00,
2013-02-19 11:23:00,73.0,56.4,30.16,SW,222,11.0,28.0,56,0.00,,---,0.00,VWS V12.08,2013-02-19 16:23:00,
2013-02-19 11:28:00,73.4,56.8,30.15,SW,223,8.0,28.0,56,0.00,,---,0.00,VWS V12.08,2013-02-19 16:28:00,
2013-02-19 11:33:00,73.4,56.3,30.15,SSW,213,13.0,28.0,55,0.00,,---,0.00,VWS V12.08,2013-02-19 16:33:00,
2013-02-19 11:38:00,73.4,55.8,30.15,SSW,209,7.0,28.0,54,0.00,,---,0.00,VWS V12.08,2013-02-19 16:38:00,
2013-02-19 11:43:00,73.3,56.2,30.15,SSW,192,8.0,28.0,55,0.00,,---,0.00,VWS V12.08,2013-02-19 16:43:00,
2013-02-19 11:48:00,73.2,56.1,30.15,WSW,238,7.0,28.0,55,0.00,,---,0.00,VWS V12.08,2013-02-19 16:48:00,
2013-02-19 11:53:00,73.7,56.0,30.14,SW,221,12.0,28.0,54,0.00,,---,0.00,VWS V12.08,2013-02-19 16:53:00,
2013-02-19 11:58:00,74.1,56.9,30.14,SW,232,6.0,28.0,55,0.00,,---,0.00,VWS V12.08,2013-02-19 16:58:00,
2013-02-19 12:03:00,74.7,56.5,30.14,South,180,6.0,28.0,53,0.00,,---,0.00,VWS V12.08,2013-02-19 17:03:00,
2013-02-19 12:08:00,75.0,56.7,30.14,SW,231,11.0,28.0,53,0.00,,---,0.00,VWS V12.08,2013-02-19 17:08:00,
2013-02-19 12:13:00,75.5,56.7,30.14,SSW,212,14.0,28.0,52,0.00,,---,0.00,VWS V12.08,2013-02-19 17:13:00,
2013-02-19 12:18:00,74.9,56.6,30.14,SW,229,10.0,28.0,53,0.00,,---,0.00,VWS V12.08,2013-02-19 17:18:00,
2013-02-19 12:23:00,74.3,56.6,30.14,WSW,241,8.0,28.0,54,0.00,,---,0.00,VWS V12.08,2013-02-19 17:23:00,
2013-02-19 12:28:00,74.3,56.1,30.13,SW,234,10.0,28.0,53,0.00,,---,0.00,VWS V12.08,2013-02-19 17:28:00,
2013-02-19 12:33:00,74.5,56.3,30.13,SSW,211,13.0,28.0,53,0.00,,---,0.00,VWS V12.08,2013-02-19 17:33:00,
2013-02-19 12:38:00,74.6,56.4,30.12,SW,229,10.0,28.0,53,0.00,,---,0.00,VWS V12.08,2013-02-19 17:38:00,
2013-02-19 12:43:00,75.6,56.8,30.12,West,262,11.0,28.0,52,0.00,,---,0.00,VWS V12.08,2013-02-19 17:43:00,
2013-02-19 12:48:00,76.7,56.7,30.12,WSW,254,11.0,28.0,50,0.00,,---,0.00,VWS V12.08,2013-02-19 17:48:00,
2013-02-19 12:53:00,77.1,56.5,30.11,SW,229,10.0,28.0,49,0.00,,---,0.00,VWS V12.08,2013-02-19 17:53:00,
2013-02-19 12:58:00,77.4,56.8,30.11,SW,231,12.0,28.0,49,0.00,,---,0.00,VWS V12.08,2013-02-19 17:58:00,
2013-02-19 13:03:00,77.0,56.4,30.10,WSW,242,10.0,28.0,49,0.00,,---,0.00,VWS V12.08,2013-02-19 18:03:00,
2013-02-19 13:08:00,76.7,56.1,30.10,SSW,202,13.0,28.0,49,0.00,,---,0.00,VWS V12.08,2013-02-19 18:08:00,
2013-02-19 13:13:00,77.3,56.7,30.09,SW,219,12.0,28.0,49,0.00,,---,0.00,VWS V12.08,2013-02-19 18:13:00,
2013-02-19 13:18:00,76.7,56.1,30.09,SSW,212,11.0,28.0,49,0.00,,---,0.00,VWS V12.08,2013-02-19 18:18:00,
2013-02-19 13:23:00,76.7,56.7,30.09,SW,229,8.0,28.0,50,0.00,,---,0.00,VWS V12.08,2013-02-19 18:23:00,
2013-02-19 13:28:00,76.4,57.0,30.08,WSW,248,7.0,28.0,51,0.00,,---,0.00,VWS V12.08,2013-02-19 18:28:00,
2013-02-19 13:33:00,75.9,56.0,30.08,WSW,243,7.0,28.0,50,0.00,,---,0.00,VWS V12.08,2013-02-19 18:33:00,
2013-02-19 13:38:00,75.8,55.9,30.08,WSW,242,12.0,28.0,50,0.00,,---,0.00,VWS V12.08,2013-02-19 18:38:00,
2013-02-19 13:43:00,75.7,56.8,30.08,WSW,238,15.0,28.0,52,0.00,,---,0.00,VWS V12.08,2013-02-19 18:43:00,
2013-02-19 13:48:00,76.5,56.5,30.08,SW,225,12.0,28.0,50,0.00,,---,0.00,VWS V12.08,2013-02-19 18:48:00,
2013-02-19 13:53:00,77.0,56.4,30.08,WSW,242,10.0,28.0,49,0.00,,---,0.00,VWS V12.08,2013-02-19 18:53:00,
2013-02-19 13:58:00,77.2,56.6,30.08,WSW,245,11.0,28.0,49,0.00,,---,0.00,VWS V12.08,2013-02-19 18:58:00,
2013-02-19 14:03:00,76.9,56.9,30.08,WSW,249,6.0,28.0,50,0.00,,---,0.00,VWS V12.08,2013-02-19 19:03:00,
2013-02-19 14:08:00,77.6,56.4,30.07,SW,221,8.0,28.0,48,0.00,,---,0.00,VWS V12.08,2013-02-19 19:08:00,
2013-02-19 14:13:00,77.8,56.6,30.07,WSW,248,11.0,28.0,48,0.00,,---,0.00,VWS V12.08,2013-02-19 19:13:00,
2013-02-19 14:18:00,76.8,56.8,30.06,WNW,286,5.0,28.0,50,0.00,,---,0.00,VWS V12.08,2013-02-19 19:18:00,
2013-02-19 14:23:00,76.7,57.2,30.06,West,259,1.0,28.0,51,0.00,,---,0.00,VWS V12.08,2013-02-19 19:23:00,
2013-02-19 14:28:00,77.4,57.3,30.06,SW,233,10.0,28.0,50,0.00,,---,0.00,VWS V12.08,2013-02-19 19:28:00,
2013-02-19 14:33:00,78.2,56.3,30.06,WSW,257,11.0,28.0,47,0.00,,---,0.00,VWS V12.08,2013-02-19 19:33:00,
2013-02-19 14:38:00,78.5,57.2,30.06,West,267,8.0,28.0,48,0.00,,---,0.00,VWS V12.08,2013-02-19 19:38:00,
2013-02-19 14:43:00,78.4,56.5,30.06,WSW,252,8.0,28.0,47,0.00,,---,0.00,VWS V12.08,2013-02-19 19:43:00,
2013-02-19 14:48:00,77.9,56.1,30.06,West,270,5.0,28.0,47,0.00,,---,0.00,VWS V12.08,2013-02-19 19:48:00,
2013-02-19 14:53:00,78.3,56.4,30.06,West,274,7.0,28.0,47,0.00,,---,0.00,VWS V12.08,2013-02-19 19:53:00,
2013-02-19 14:58:00,78.1,56.8,30.06,WSW,248,2.0,28.0,48,0.00,,---,0.00,VWS V12.08,2013-02-19 19:58:00,
2013-02-19 15:03:00,78.5,56.6,30.05,WNW,286,5.0,28.0,47,0.00,,---,0.00,VWS V12.08,2013-02-19 20:03:00,
2013-02-19 15:08:00,77.6,56.4,30.05,WNW,291,8.0,28.0,48,0.00,,---,0.00,VWS V12.08,2013-02-19 20:08:00,
2013-02-19 15:13:00,77.1,56.5,30.05,West,266,7.0,28.0,49,0.00,,---,0.00,VWS V12.08,2013-02-19 20:13:00,
2013-02-19 15:18:00,77.3,56.7,30.05,WNW,297,0.0,28.0,49,0.00,,---,0.00,VWS V12.08,2013-02-19 20:18:00,
2013-02-19 15:23:00,77.4,56.2,30.05,West,271,5.0,28.0,48,0.00,,---,0.00,VWS V12.08,2013-02-19 20:23:00,
2013-02-19 15:28:00,77.5,56.9,30.05,West,279,8.0,28.0,49,0.00,,---,0.00,VWS V12.08,2013-02-19 20:28:00,
2013-02-19 15:33:00,77.6,57.0,30.05,West,261,3.0,28.0,49,0.00,,---,0.00,VWS V12.08,2013-02-19 20:33:00,
2013-02-19 15:38:00,78.1,56.8,30.04,WNW,282,12.0,28.0,48,0.00,,---,0.00,VWS V12.08,2013-02-19 20:38:00,
2013-02-19 15:43:00,78.3,57.0,30.04,West,261,5.0,28.0,48,0.00,,---,0.00,VWS V12.08,2013-02-19 20:43:00,
2013-02-19 15:48:00,78.7,57.4,30.04,West,265,7.0,28.0,48,0.00,,---,0.00,VWS V12.08,2013-02-19 20:48:00,
2013-02-19 15:53:00,78.7,56.8,30.04,WSW,247,8.0,28.0,47,0.00,,---,0.00,VWS V12.08,2013-02-19 20:53:00,
2013-02-19 15:58:00,78.3,55.8,30.04,WSW,240,11.0,28.0,46,0.00,,---,0.00,VWS V12.08,2013-02-19 20:58:00,
2013-02-19 16:03:00,77.6,56.4,30.03,WSW,248,8.0,28.0,48,0.00,,---,0.00,VWS V12.08,2013-02-19 21:03:00,
2013-02-19 16:08:00,77.9,56.7,30.03,WNW,300,6.0,28.0,48,0.00,,---,0.00,VWS V12.08,2013-02-19 21:08:00,
2013-02-19 16:13:00,78.1,56.2,30.03,WSW,237,12.0,28.0,47,0.00,,---,0.00,VWS V12.08,2013-02-19 21:13:00,
2013-02-19 16:18:00,78.2,55.8,30.03,West,259,12.0,28.0,46,0.00,,---,0.00,VWS V12.08,2013-02-19 21:18:00,
2013-02-19 16:23:00,78.0,56.2,30.03,West,265,5.0,28.0,47,0.00,,---,0.00,VWS V12.08,2013-02-19 21:23:00,
2013-02-19 16:28:00,78.2,56.3,30.03,WSW,252,7.0,28.0,47,0.00,,---,0.00,VWS V12.08,2013-02-19 21:28:00,
2013-02-19 16:33:00,78.2,56.3,30.03,WSW,257,0.0,28.0,47,0.00,,---,0.00,VWS V12.08,2013-02-19 21:33:00,
2013-02-19 16:38:00,78.0,56.2,30.03,WSW,250,10.0,28.0,47,0.00,,---,0.00,VWS V12.08,2013-02-19 21:38:00,
2013-02-19 16:43:00,77.6,56.4,30.04,SW,221,8.0,28.0,48,0.00,,---,0.00,VWS V12.08,2013-02-19 21:43:00,
2013-02-19 16:48:00,77.8,57.1,30.04,WSW,239,6.0,28.0,49,0.00,,---,0.00,VWS V12.08,2013-02-19 21:48:00,
2013-02-19 16:53:00,77.8,56.6,30.04,WSW,252,11.0,28.0,48,0.00,,---,0.00,VWS V12.08,2013-02-19 21:53:00,
2013-02-19 16:58:00,77.4,56.8,30.04,WSW,245,2.0,28.0,49,0.00,,---,0.00,VWS V12.08,2013-02-19 21:58:00,
2013-02-19 17:03:00,77.1,57.0,30.04,WSW,250,7.0,28.0,50,0.00,,---,0.00,VWS V12.08,2013-02-19 22:03:00,
2013-02-19 17:08:00,77.0,57.0,30.04,WSW,257,6.0,28.0,50,0.00,,---,0.00,VWS V12.08,2013-02-19 22:08:00,
2013-02-19 17:13:00,76.6,57.1,30.04,SW,233,0.0,28.0,51,0.00,,---,0.00,VWS V12.08,2013-02-19 22:13:00,
2013-02-19 17:18:00,76.1,57.2,30.04,WSW,241,12.0,28.0,52,0.00,,---,0.00,VWS V12.08,2013-02-19 22:18:00,
2013-02-19 17:23:00,75.6,56.8,30.04,WSW,242,4.0,28.0,52,0.00,,---,0.00,VWS V12.08,2013-02-19 22:23:00,
2013-02-19 17:28:00,75.3,57.0,30.04,WSW,251,8.0,28.0,53,0.00,,---,0.00,VWS V12.08,2013-02-19 22:28:00,
2013-02-19 17:33:00,74.9,57.2,30.05,WSW,243,5.0,28.0,54,0.00,,---,0.00,VWS V12.08,2013-02-19 22:33:00,
2013-02-19 17:38:00,74.6,56.9,30.05,WSW,256,7.0,28.0,54,0.00,,---,0.00,VWS V12.08,2013-02-19 22:38:00,
2013-02-19 17:43:00,74.3,57.1,30.04,WSW,246,3.0,28.0,55,0.00,,---,0.00,VWS V12.08,2013-02-19 22:43:00,
2013-02-19 17:48:00,74.0,56.8,30.04,WSW,244,3.0,28.0,55,0.00,,---,0.00,VWS V12.08,2013-02-19 22:48:00,
2013-02-19 17:53:00,73.8,57.1,30.04,WSW,244,5.0,28.0,56,0.00,,---,0.00,VWS V12.08,2013-02-19 22:53:00,
2013-02-19 17:58:00,73.5,56.9,30.05,WSW,244,4.0,28.0,56,0.00,,---,0.00,VWS V12.08,2013-02-19 22:58:00,
2013-02-19 18:03:00,73.3,57.2,30.05,WSW,243,2.0,28.0,57,0.00,,---,0.00,VWS V12.08,2013-02-19 23:03:00,
2013-02-19 18:08:00,72.9,56.8,30.05,WSW,243,4.0,28.0,57,0.00,,---,0.00,VWS V12.08,2013-02-19 23:08:00,
2013-02-19 18:13:00,72.6,57.0,30.05,WSW,244,4.0,28.0,58,0.00,,---,0.00,VWS V12.08,2013-02-19 23:13:00,
2013-02-19 18:18:00,72.3,56.7,30.05,WSW,249,3.0,28.0,58,0.00,,---,0.00,VWS V12.08,2013-02-19 23:18:00,
2013-02-19 18:23:00,72.2,56.6,30.05,WSW,257,0.0,28.0,58,0.00,,---,0.00,VWS V12.08,2013-02-19 23:23:00,
2013-02-19 18:28:00,72.0,56.9,30.05,WSW,257,0.0,28.0,59,0.00,,---,0.00,VWS V12.08,2013-02-19 23:28:00,
2013-02-19 18:33:00,71.7,56.6,30.05,WSW,257,0.0,28.0,59,0.00,,---,0.00,VWS V12.08,2013-02-19 23:33:00,
2013-02-19 18:38:00,71.4,56.3,30.05,WSW,257,3.0,28.0,59,0.00,,---,0.00,VWS V12.08,2013-02-19 23:38:00,
2013-02-19 18:43:00,70.9,56.3,30.05,WSW,257,0.0,28.0,60,0.00,,---,0.00,VWS V12.08,2013-02-19 23:43:00,
2013-02-19 18:48:00,70.5,56.4,30.06,WSW,257,0.0,28.0,61,0.00,,---,0.00,VWS V12.08,2013-02-19 23:48:00,
2013-02-19 18:53:00,70.1,56.0,30.06,WSW,257,2.0,28.0,61,0.00,,---,0.00,VWS V12.08,2013-02-19 23:53:00,
2013-02-19 18:58:00,69.5,55.9,30.06,WSW,257,0.0,28.0,62,0.00,,---,0.00,VWS V12.08,2013-02-19 23:58:00,
2013-02-19 19:03:00,68.9,56.2,30.06,WSW,257,0.0,28.0,64,0.00,,---,0.00,VWS V12.08,2013-02-20 00:03:00,
2013-02-19 19:08:00,68.2,55.6,30.06,WSW,257,0.0,28.0,64,0.00,,---,0.00,VWS V12.08,2013-02-20 00:08:00,
2013-02-19 19:13:00,67.6,55.8,30.07,WSW,257,1.0,28.0,66,0.00,,---,0.00,VWS V12.08,2013-02-20 00:13:00,
2013-02-19 19:18:00,67.1,55.8,30.07,WSW,257,0.0,28.0,67,0.00,,---,0.00,VWS V12.08,2013-02-20 00:18:00,
2013-02-19 19:23:00,66.8,55.9,30.07,WSW,257,0.0,28.0,68,0.00,,---,0.00,VWS V12.08,2013-02-20 00:23:00,
2013-02-19 19:28:00,66.9,56.0,30.07,WSW,257,0.0,28.0,68,0.00,,---,0.00,VWS V12.08,2013-02-20 00:28:00,
2013-02-19 19:33:00,67.1,56.2,30.07,WSW,257,1.0,28.0,68,0.00,,---,0.00,VWS V12.08,2013-02-20 00:33:00,
2013-02-19 19:38:00,67.2,56.3,30.07,WSW,257,0.0,28.0,68,0.00,,---,0.00,VWS V12.08,2013-02-20 00:38:00,
2013-02-19 19:43:00,67.3,56.4,30.08,WSW,257,0.0,28.0,68,0.00,,---,0.00,VWS V12.08,2013-02-20 00:43:00,
2013-02-19 19:48:00,67.3,56.4,30.08,WSW,257,0.0,28.0,68,0.00,,---,0.00,VWS V12.08,2013-02-20 00:48:00,
2013-02-19 19:53:00,67.3,56.4,30.08,WSW,257,0.0,28.0,68,0.00,,---,0.00,VWS V12.08,2013-02-20 00:53:00,
2013-02-19 19:58:00,67.1,56.2,30.08,WSW,257,0.0,28.0,68,0.00,,---,0.00,VWS V12.08,2013-02-20 00:58:00,
2013-02-19 20:03:00,66.8,56.3,30.08,WSW,257,0.0,28.0,69,0.00,,---,0.00,VWS V12.08,2013-02-20 01:03:00,
2013-02-19 20:08:00,66.8,56.3,30.08,WSW,257,2.0,28.0,69,0.00,,---,0.00,VWS V12.08,2013-02-20 01:08:00,
2013-02-19 20:13:00,66.8,56.3,30.08,WSW,257,0.0,28.0,69,0.00,,---,0.00,VWS V12.08,2013-02-20 01:13:00,
2013-02-19 20:18:00,66.7,56.2,30.08,WSW,257,0.0,28.0,69,0.00,,---,0.00,VWS V12.08,2013-02-20 01:18:00,
2013-02-19 20:23:00,66.3,55.8,30.08,WSW,257,0.0,28.0,69,0.00,,---,0.00,VWS V12.08,2013-02-20 01:23:00,
2013-02-19 20:28:00,65.9,55.5,30.08,WSW,257,0.0,28.0,69,0.00,,---,0.00,VWS V12.08,2013-02-20 01:28:00,
2013-02-19 20:33:00,65.5,56.2,30.08,WSW,257,0.0,28.0,72,0.00,,---,0.00,VWS V12.08,2013-02-20 01:33:00,
2013-02-19 20:38:00,65.3,56.0,30.08,WSW,257,0.0,28.0,72,0.00,,---,0.00,VWS V12.08,2013-02-20 01:38:00,
2013-02-19 20:43:00,65.2,56.0,30.08,WSW,257,0.0,28.0,72,0.00,,---,0.00,VWS V12.08,2013-02-20 01:43:00,
2013-02-19 20:48:00,65.1,55.9,30.08,WSW,257,0.0,28.0,72,0.00,,---,0.00,VWS V12.08,2013-02-20 01:48:00,
2013-02-19 20:53:00,64.5,55.3,30.08,WSW,257,0.0,28.0,72,0.00,,---,0.00,VWS V12.08,2013-02-20 01:53:00,
2013-02-19 20:58:00,63.8,55.0,30.08,WSW,257,0.0,28.0,73,0.00,,---,0.00,VWS V12.08,2013-02-20 01:58:00,
2013-02-19 21:03:00,63.1,54.7,30.08,WSW,257,0.0,28.0,74,0.00,,---,0.00,VWS V12.08,2013-02-20 02:03:00,
2013-02-19 21:08:00,62.5,54.5,30.08,WSW,257,0.0,28.0,75,0.00,,---,0.00,VWS V12.08,2013-02-20 02:08:00,
2013-02-19 21:13:00,62.0,54.7,30.08,WSW,257,0.0,28.0,77,0.00,,---,0.00,VWS V12.08,2013-02-20 02:13:00,
2013-02-19 21:18:00,61.5,53.9,30.08,WSW,257,0.0,28.0,76,0.00,,---,0.00,VWS V12.08,2013-02-20 02:18:00,
2013-02-19 21:23:00,60.7,54.2,30.08,WSW,257,0.0,28.0,79,0.00,,---,0.00,VWS V12.08,2013-02-20 02:23:00,
2013-02-19 21:28:00,60.5,54.0,30.08,WSW,257,0.0,28.0,79,0.00,,---,0.00,VWS V12.08,2013-02-20 02:28:00,
2013-02-19 21:33:00,60.2,53.7,30.09,WSW,257,0.0,28.0,79,0.00,,---,0.00,VWS V12.08,2013-02-20 02:33:00,
2013-02-19 21:38:00,60.2,54.4,30.08,WSW,257,0.0,28.0,81,0.00,,---,0.00,VWS V12.08,2013-02-20 02:38:00,
2013-02-19 21:43:00,60.5,54.3,30.08,WSW,257,0.0,28.0,80,0.00,,---,0.00,VWS V12.08,2013-02-20 02:43:00,
2013-02-19 21:48:00,61.0,55.1,30.08,WSW,257,0.0,28.0,81,0.00,,---,0.00,VWS V12.08,2013-02-20 02:48:00,
2013-02-19 21:53:00,61.1,54.5,30.09,WSW,257,0.0,28.0,79,0.00,,---,0.00,VWS V12.08,2013-02-20 02:53:00,
2013-02-19 21:58:00,60.8,53.9,30.08,WSW,257,0.0,28.0,78,0.00,,---,0.00,VWS V12.08,2013-02-20 02:58:00,
2013-02-19 22:03:00,60.3,54.1,30.08,WSW,257,0.0,28.0,80,0.00,,---,0.00,VWS V12.08,2013-02-20 03:03:00,
2013-02-19 22:08:00,59.8,53.6,30.08,WSW,257,0.0,28.0,80,0.00,,---,0.00,VWS V12.08,2013-02-20 03:08:00,
2013-02-19 22:14:00,59.2,52.7,30.08,WSW,257,0.0,28.0,79,0.00,,---,0.00,VWS V12.08,2013-02-20 03:14:00,
2013-02-19 22:18:00,58.7,53.2,30.08,WSW,257,0.0,28.0,82,0.00,,---,0.00,VWS V12.08,2013-02-20 03:18:00,
2013-02-19 22:23:00,58.5,53.4,30.08,WSW,257,0.0,28.0,83,0.00,,---,0.00,VWS V12.08,2013-02-20 03:23:00,
2013-02-19 22:28:00,58.8,54.0,30.07,WSW,257,2.0,28.0,84,0.00,,---,0.00,VWS V12.08,2013-02-20 03:28:00,
2013-02-19 22:33:00,59.6,54.4,30.07,WSW,257,0.0,28.0,83,0.00,,---,0.00,VWS V12.08,2013-02-20 03:33:00,
2013-02-19 22:39:00,59.9,54.4,30.07,WSW,257,0.0,28.0,82,0.00,,---,0.00,VWS V12.08,2013-02-20 03:39:00,
2013-02-19 22:44:00,59.8,54.0,30.07,WSW,257,0.0,28.0,81,0.00,,---,0.00,VWS V12.08,2013-02-20 03:44:00,
2013-02-19 22:49:00,59.5,54.0,30.07,WSW,257,0.0,28.0,82,0.00,,---,0.00,VWS V12.08,2013-02-20 03:49:00,
2013-02-19 22:54:00,59.4,54.2,30.07,WSW,257,0.0,28.0,83,0.00,,---,0.00,VWS V12.08,2013-02-20 03:54:00,
2013-02-19 22:59:00,59.4,54.9,30.07,WSW,257,2.0,28.0,85,0.00,,---,0.00,VWS V12.08,2013-02-20 03:59:00,
2013-02-19 23:04:00,59.8,55.3,30.07,WSW,257,0.0,28.0,85,0.00,,---,0.00,VWS V12.08,2013-02-20 04:04:00,
2013-02-19 23:09:00,60.0,55.5,30.07,WSW,257,0.0,28.0,85,0.00,,---,0.00,VWS V12.08,2013-02-20 04:09:00,
2013-02-19 23:14:00,60.1,55.6,30.07,WSW,257,0.0,28.0,85,0.00,,---,0.00,VWS V12.08,2013-02-20 04:14:00,
2013-02-19 23:19:00,60.3,55.8,30.06,WSW,257,0.0,28.0,85,0.00,,---,0.00,VWS V12.08,2013-02-20 04:19:00,
2013-02-19 23:24:00,60.5,55.7,30.07,WSW,257,0.0,28.0,84,0.00,,---,0.00,VWS V12.08,2013-02-20 04:24:00,
2013-02-19 23:29:00,60.6,56.1,30.06,WSW,257,0.0,28.0,85,0.00,,---,0.00,VWS V12.08,2013-02-20 04:29:00,
2013-02-19 23:34:00,60.8,56.3,30.06,WSW,257,0.0,28.0,85,0.00,,---,0.00,VWS V12.08,2013-02-20 04:34:00,
2013-02-19 23:39:00,60.4,54.5,30.06,WSW,257,0.0,28.0,81,0.00,,---,0.00,VWS V12.08,2013-02-20 04:39:00,
2013-02-19 23:44:00,59.5,53.3,30.06,WSW,257,0.0,28.0,80,0.00,,---,0.00,VWS V12.08,2013-02-20 04:44:00,
2013-02-19 23:49:00,58.4,52.6,30.07,WSW,257,0.0,28.0,81,0.00,,---,0.00,VWS V12.08,2013-02-20 04:49:00,
2013-02-19 23:54:00,57.7,52.6,30.07,WSW,257,0.0,28.0,83,0.00,,---,0.00,VWS V12.08,2013-02-20 04:54:00,
2013-02-19 23:59:00,57.3,52.8,30.07,WSW,257,0.0,28.0,85,0.00,,---,0.00,VWS V12.08,2013-02-20 04:59:00,